This is the latest recevied weather packets stored in our database for station/object DH0DM-13. If no packets are shown the sender has not sent any weather packets the latest 10 day(s).
| Time | Temp. | Humidity | Pressure | Rain* | Wind** | Luminosity | Snow |
|---|---|---|---|---|---|---|---|
| 1777868440 | 13.89° C | 70% | 986.3 hPa | 0 mm | 0 m/s | - | - |
| 1777867839 | 13.89° C | 70% | 986.3 hPa | 0 mm | 0 m/s | - | - |
| 1777867238 | 13.89° C | 69% | 986.4 hPa | 0 mm | 0 m/s | - | - |
| 1777866637 | 13.89° C | 67% | 986.7 hPa | 0 mm | 0 m/s | - | - |
| 1777866037 | 14.44° C | 65% | 986.6 hPa | 0 mm | 0 m/s | - | - |
| 1777865436 | 15° C | 63% | 986.6 hPa | 0 mm | 0 m/s | - | - |
| 1777864835 | 15° C | 60% | 986.7 hPa | 0 mm | 0.89 m/s, 83° | - | - |
| 1777864234 | 15° C | 63% | 986.8 hPa | 0 mm | 0 m/s | - | - |
| 1777863633 | 14.44° C | 65% | 986.6 hPa | 0 mm | 2.24 m/s, 75° | - | - |
| 1777863032 | 15° C | 64% | 986.6 hPa | 0 mm | 0 m/s | - | - |
| 1777862431 | 15° C | 64% | 986.7 hPa | 0 mm | 1.34 m/s, 99° | - | - |
| 1777861830 | 14.44° C | 65% | 986.8 hPa | 0 mm | 0 m/s | - | - |
| 1777861230 | 14.44° C | 65% | 986.6 hPa | 0 mm | 0 m/s | - | - |
| 1777860629 | 14.44° C | 64% | 986.4 hPa | 0 mm | 0 m/s | - | - |
| 1777860028 | 15° C | 63% | 986.4 hPa | 0 mm | 0 m/s | - | - |
| 1777859427 | 15° C | 62% | 986.5 hPa | 0 mm | 0.45 m/s, 340° | - | - |
| 1777858826 | 15° C | 62% | 986.4 hPa | 0 mm | 0.45 m/s, 126° | - | - |
| 1777858225 | 15° C | 60% | 986.3 hPa | 0 mm | 0.89 m/s, 96° | - | - |
| 1777857624 | 15.56° C | 58% | 986.4 hPa | 0 mm | 0 m/s | - | - |
| 1777857023 | 16.11° C | 56% | 986.4 hPa | 0 mm | 0 m/s | - | - |
| 1777856422 | 16.67° C | 55% | 986.4 hPa | 0 mm | 0 m/s | - | - |
| 1777855821 | 16.11° C | 55% | 986.3 hPa | 0 mm | 0 m/s | - | - |
| 1777855220 | 16.11° C | 54% | 986.2 hPa | 0 mm | 0 m/s | - | - |
| 1777854620 | 16.67° C | 54% | 986.1 hPa | 0 mm | 0.89 m/s, 217° | - | - |
| 1777854019 | 17.22° C | 51% | 985.9 hPa | 0 mm | 0.89 m/s, 201° | - | - |
* Rain since midnight (hover to see other rain measurements)
** Current wind speed in m/s (hover to see current wind gust speed)